Date String (YYYY-MM-DD hh:mm:ss) UTC,Instrument flags,absolute air pressure of the measurement (hPa),sample flow rate (lpm),inlet stack bypass flow (lpm),air temperature of the measurement (°C),ambient temperature measured by the external sensor (°C),aerosol sample conditioner tube jacket temperature (°C),OPC LED temperature (°C),internal box temperature (°C),relative humidity of the measurement (%),span deviation,mass concentration of particles derived from Lorenz-Mie calculation of OPC scattering (μg/m³),mass concentration of particles derived from Lorenz-Mie calculation of OPC scattering (μg/m³),mass concentration of particles derived from Lorenz-Mie calculation of OPC scattering (μg/m³)
DateTimeUTC,F1_M11,P_M11,Q1_M11,Q2_M11,T1_M11,T2_M11,T3_M11,T4_M11,T5_M11,U1_M11,ZSPAN_M11,X0_M11,X2_M11,X1_M11
2024-05-30 16:00:00,SystemResetWarning,0829.6,5.00,000.00,030.6,029.8,000.0,038.9,032.3,019.3,0000.0,0016.17,0004.09,0002.80
2024-05-30 16:01:00,SystemResetWarning,0829.6,5.00,000.00,030.6,029.8,000.0,038.9,032.3,019.6,0000.0,0016.35,0004.09,0002.80
2024-05-30 16:02:00,SystemResetWarning,0829.6,5.01,000.00,030.6,029.8,000.0,038.9,032.3,020.5,0000.0,0016.15,0004.09,0002.79
2024-05-30 16:03:00,SystemResetWarning,0829.6,5.01,000.00,030.6,029.8,000.0,038.9,032.3,020.3,0000.0,0016.71,0004.10,0002.79
2024-05-30 16:04:00,SystemResetWarning,0829.6,5.01,000.00,030.6,029.9,000.0,038.9,032.3,019.8,0000.0,0016.87,0004.13,0002.80
2024-05-30 16:05:00,SystemResetWarning,0829.6,5.00,000.00,030.6,029.9,000.0,039.0,032.4,019.8,0000.0,0017.08,0004.15,0002.82
2024-05-30 16:06:00,SystemResetWarning,0829.6,4.99,000.00,030.6,029.9,000.0,039.0,032.4,020.0,0000.0,0016.98,0004.14,0002.82
2024-05-30 16:07:00,SystemResetWarning,0829.6,4.99,000.00,030.7,029.9,000.0,039.0,032.4,019.6,0000.0,0015.37,0004.16,0002.83
2024-05-30 16:08:00,SystemResetWarning,0829.7,4.99,000.00,030.7,029.9,000.0,039.0,032.4,019.4,0000.0,0014.46,0004.18,0002.84
2024-05-30 16:09:00,SystemResetWarning,0829.7,5.00,000.00,030.7,029.9,000.0,039.0,032.4,019.6,0000.0,0014.49,0004.18,0002.86
2024-05-30 16:10:00,SystemResetWarning,0829.6,5.00,000.00,030.7,029.9,000.0,039.0,032.4,020.0,0000.0,0013.92,0004.14,0002.88
2024-05-30 16:11:00,SystemResetWarning,0829.6,5.01,000.00,030.7,029.9,000.0,039.0,032.4,019.5,0000.0,0014.53,0004.15,0002.90
2024-05-30 16:12:00,SystemResetWarning,0829.6,5.00,000.00,030.7,029.9,000.0,039.0,032.4,019.9,0000.0,0013.80,0004.12,0002.91
2024-05-30 16:13:00,SystemResetWarning,0829.6,4.99,000.00,030.7,030.0,000.0,039.0,032.4,020.6,0000.0,0013.88,0004.11,0002.93
2024-05-30 16:14:00,SystemResetWarning,0829.5,5.00,000.00,030.7,030.0,000.0,039.0,032.5,019.9,0000.0,0015.01,0004.15,0002.96
2024-05-30 16:15:00,SystemResetWarning,0829.6,4.99,000.00,030.7,030.0,000.0,039.0,032.5,019.9,0000.0,0014.98,0004.14,0002.95
2024-05-30 16:16:00,SystemResetWarning,0829.6,5.00,000.00,030.8,030.0,000.0,039.0,032.5,020.3,0000.0,0014.55,0004.15,0002.95
2024-05-30 16:17:00,SystemResetWarning,0829.5,5.00,000.00,030.8,030.0,000.0,039.1,032.5,020.4,0000.0,0014.23,0004.18,0002.94
2024-05-30 16:18:00,SystemResetWarning,0829.5,5.01,000.00,030.8,030.0,000.0,039.1,032.5,019.9,0000.0,0014.18,0004.17,0002.93
2024-05-30 16:19:00,SystemResetWarning,0829.5,5.00,000.00,030.8,030.0,000.0,039.1,032.5,020.6,0000.0,0013.78,0004.20,0002.92
2024-05-30 16:20:00,SystemResetWarning,0829.5,5.01,000.00,030.8,030.1,000.0,039.1,032.5,020.0,0000.0,0013.62,0004.20,0002.90
2024-05-30 16:21:00,SystemResetWarning,0829.5,4.99,000.00,030.8,030.1,000.0,039.1,032.5,019.8,0000.0,0013.44,0004.19,0002.90
2024-05-30 16:22:00,SystemResetWarning,0829.5,4.99,000.00,030.8,030.1,000.0,039.1,032.6,019.5,0000.0,0012.52,0004.15,0002.90
2024-05-30 16:23:00,SystemResetWarning,0829.5,5.00,000.00,030.8,030.1,000.0,039.1,032.6,018.8,0000.0,0012.76,0004.16,0002.89
2024-05-30 16:24:00,SystemResetWarning,0829.5,5.01,000.00,030.8,030.1,000.0,039.1,032.6,018.4,0000.0,0013.06,0004.17,0002.88
2024-05-30 16:25:00,SystemResetWarning,0829.4,5.01,000.00,030.8,030.1,000.0,039.1,032.6,018.0,0000.0,0011.55,0004.12,0002.87
2024-05-30 16:26:00,SystemResetWarning,0829.4,5.00,000.00,030.9,030.1,000.0,039.1,032.6,018.5,0000.0,0011.74,0004.14,0002.87
2024-05-30 16:27:00,SystemResetWarning,0829.4,4.99,000.00,030.9,030.1,000.0,039.2,032.6,018.3,0000.0,0012.32,0004.11,0002.87
2024-05-30 16:28:00,SystemResetWarning,0829.3,5.00,000.00,030.9,030.1,000.0,039.2,032.6,018.7,0000.0,0012.52,0004.09,0002.90
2024-05-30 16:29:00,SystemResetWarning,0829.3,4.99,000.00,030.9,030.1,000.0,039.2,032.6,019.0,0000.0,0012.36,0004.07,0002.91
2024-05-30 16:30:00,SystemResetWarning,0829.3,5.00,000.00,030.9,030.1,000.0,039.2,032.6,019.0,0000.0,0012.67,0004.05,0002.93
2024-05-30 16:31:00,SystemResetWarning,0829.3,5.00,000.00,030.9,030.1,000.0,039.2,032.6,019.0,0000.0,0013.65,0003.99,0002.96
2024-05-30 16:32:00,SystemResetWarning,0829.3,5.00,000.00,030.9,030.2,000.0,039.2,032.6,018.7,0000.0,0014.83,0004.03,0002.97
2024-05-30 16:33:00,SystemResetWarning,0829.3,5.01,000.00,030.9,030.2,000.0,039.2,032.7,019.0,0000.0,0015.29,0004.03,0002.95
2024-05-30 16:34:00,SystemResetWarning,0829.3,5.00,000.00,030.9,030.2,000.0,039.2,032.6,018.9,0000.0,0014.76,0004.04,0002.97
2024-05-30 16:35:00,SystemResetWarning,0829.4,5.00,000.00,031.0,030.2,000.0,039.2,032.6,019.0,0000.0,0014.54,0004.07,0002.99
2024-05-30 16:36:00,SystemResetWarning,0829.3,5.00,000.00,031.0,030.2,000.0,039.2,032.7,019.0,0000.0,0014.62,0004.04,0002.98
2024-05-30 16:37:00,SystemResetWarning,0829.4,5.01,000.00,031.0,030.2,000.0,039.3,032.7,018.7,0000.0,0014.18,0004.01,0003.01
2024-05-30 16:38:00,SystemResetWarning,0829.4,5.00,000.00,031.0,030.2,000.0,039.3,032.7,018.4,0000.0,0013.25,0003.98,0003.03
2024-05-30 16:39:00,SystemResetWarning,0829.4,5.00,000.00,031.0,030.2,000.0,039.3,032.7,018.8,0000.0,0013.14,0003.98,0003.01
2024-05-30 16:40:00,SystemResetWarning,0829.4,5.00,000.00,031.0,030.2,000.0,039.3,032.7,019.4,0000.0,0013.91,0003.95,0002.98
2024-05-30 16:41:00,SystemResetWarning,0829.4,4.99,000.00,031.0,029.6,000.0,039.4,032.3,018.7,0000.0,0014.04,0003.91,0002.97
2024-05-30 16:42:00,SystemResetWarning,0829.3,5.01,000.00,030.6,027.4,000.0,039.4,031.2,019.2,0000.0,0012.89,0003.93,0002.97
2024-05-30 16:43:00,SystemResetWarning,0829.3,5.02,000.00,030.2,027.1,000.0,039.3,030.9,018.9,0000.0,0012.12,0003.95,0002.99
2024-05-30 16:44:00,SystemResetWarning,0829.3,5.00,000.00,030.1,027.5,000.0,039.2,031.0,019.2,0000.0,0012.56,0003.99,0003.02
2024-05-30 16:45:00,SystemResetWarning,0829.3,4.99,000.00,030.1,027.8,000.0,039.0,031.3,019.6,0000.0,0012.98,0004.01,0003.05
2024-05-30 16:46:00,SystemResetWarning,0829.4,5.00,000.00,030.1,028.2,000.0,039.0,031.4,019.9,0000.0,0012.58,0004.01,0003.06
2024-05-30 16:47:00,SystemResetWarning,0829.3,5.00,000.00,030.1,028.4,000.0,038.9,031.6,019.9,0000.0,0013.20,0004.09,0003.09
2024-05-30 16:48:00,SystemResetWarning,0829.4,5.01,000.00,030.1,028.7,000.0,038.8,031.7,019.9,0000.0,0014.03,0004.12,0003.10
2024-05-30 16:49:00,SystemResetWarning,0829.3,4.99,000.00,030.2,028.9,000.0,038.8,031.7,020.6,0000.0,0016.93,0004.21,0003.11
2024-05-30 16:50:00,SystemResetWarning,0829.3,4.99,000.00,030.2,029.0,000.0,038.8,031.8,020.4,0000.0,0017.57,0004.32,0003.13
2024-05-30 16:51:00,SystemResetWarning,0829.3,5.00,000.00,030.2,029.2,000.0,038.7,031.9,019.7,0000.0,0016.83,0004.36,0003.16
2024-05-30 16:52:00,SystemResetWarning,0829.3,5.00,000.00,030.2,029.3,000.0,038.7,031.9,019.5,0000.0,0016.07,0004.38,0003.17
2024-05-30 16:53:00,SystemResetWarning,0829.3,5.01,000.00,030.3,029.4,000.0,038.7,032.0,019.4,0000.0,0016.26,0004.36,0003.18
2024-05-30 16:54:00,SystemResetWarning,0829.3,5.01,000.00,030.3,029.5,000.0,038.7,032.0,019.2,0000.0,0016.13,0004.32,0003.18
2024-05-30 16:55:00,SystemResetWarning,0829.3,5.00,000.00,030.3,029.5,000.0,038.7,032.0,019.1,0000.0,0016.57,0004.30,0003.18
2024-05-30 16:56:00,SystemResetWarning,0829.4,4.99,000.00,030.4,029.6,000.0,038.8,032.1,019.3,0000.0,0017.36,0004.29,0003.18
2024-05-30 16:57:00,SystemResetWarning,0829.3,4.99,000.00,030.4,029.6,000.0,038.8,032.1,019.6,0000.0,0017.69,0004.28,0003.19
2024-05-30 16:58:00,SystemResetWarning,0829.3,5.00,000.00,030.4,029.7,000.0,038.8,032.1,018.9,0000.0,0017.17,0004.25,0003.19
2024-05-30 16:59:00,SystemResetWarning,0829.3,5.01,000.00,030.4,029.7,000.0,038.8,032.2,019.5,0000.0,0016.93,0004.24,0003.19
